Oakes, ND

3:58 PM CDT on September 20, 2017 (GMT -0500)
Oakes

Weather History for K2D5 - December, 2013

Change the Weather History Date:

Friday, December 13, 2013

  Actual Average (KP67) Record (KP67)
Temperature  
Mean Temperature 2 °F -  
Max Temperature 5 °F 24 °F 34 °F (1997)
Min Temperature -2 °F 11 °F 0 °F (1996)
Degree Days  
Heating Degree Days 64    
Moisture  
Dew Point -5 °F    
Average Humidity 81    
Maximum Humidity 92    
Minimum Humidity 78    
Precipitation  
Precipitation 0.27 in - - ()
Sea Level Pressure  
Sea Level Pressure 30.20 in    
Wind  
Wind Speed 18 mph (NNE)    
Max Wind Speed 23 mph    
Max Gust Speed 29 mph    
Visibility 8 miles    
Events Rain , Snow    
Averages and records for this station are not official NWS values.
T = Trace of Precipitation, MM = Missing Value Source: NWS Daily Summary

Daily Weather History Graph

Daily Weather History Graph

Search for Another Location

Airport or City:

Trip Planner

Search our weather history database for the weather conditions in past years. The results will help you decide how hot, cold, wet, or windy it might be!

Date:

Astronomy

Dec. 13, 2013 Rise Set
Actual Time 8:06 AM CST 4:46 PM CST
Civil Twilight 7:32 AM CST 5:21 PM CST
Nautical Twilight 6:54 AM CST 5:59 PM CST
Astronomical Twilight 6:17 AM CST 6:35 PM CST
Moon 2:38 PM CST (12/13) 4:22 AM CST (12/13)
Length of Visible Light 9h 49m
Length of Day
8h 39m
Waxing Gibbous, 88% of the Moon is Illuminated
Dec 13
Waxing Gibbous
Dec 17
Full
Dec 25
Last Quarter
Jan 1
New
Jan 7
First Quarter

Hourly Weather History & Observations

Time (CST) Temp. Windchill Dew Point Humidity Pressure Visibility Wind Dir Wind Speed Gust Speed Precip Events Conditions
12:15 AM 5.0 °F -15.2 °F 1.4 °F 85% 30.12 in 10.0 mi NE 19.6 mph - N/A   Mostly Cloudy
12:35 AM 5.0 °F -14.7 °F -0.4 °F 78% 30.13 in 10.0 mi NE 18.4 mph - N/A   Overcast
12:55 AM 3.2 °F -18.1 °F -0.4 °F 85% 30.12 in 10.0 mi NE 20.7 mph - N/A   Overcast
1:15 AM 3.2 °F -17.1 °F -0.4 °F 85% 30.13 in 10.0 mi NE 18.4 mph - N/A   Overcast
1:35 AM 3.2 °F -18.1 °F -0.4 °F 85% 30.12 in 10.0 mi NE 20.7 mph - N/A Rain Light Freezing Rain
1:55 AM 3.2 °F -17.1 °F -0.4 °F 85% 30.12 in 10.0 mi NE 18.4 mph - N/A   Overcast
2:15 AM 3.2 °F -15.9 °F -0.4 °F 85% 30.13 in 10.0 mi NE 16.1 mph - N/A   Overcast
2:35 AM 3.2 °F -15.9 °F -0.4 °F 85% 30.13 in 10.0 mi NE 16.1 mph - N/A   Overcast
2:55 AM 3.2 °F -18.1 °F -0.4 °F 85% 30.13 in 10.0 mi NE 20.7 mph 24.2 mph N/A   Overcast
3:15 AM 3.2 °F -17.6 °F -0.4 °F 85% 30.13 in 10.0 mi NNE 19.6 mph 25.3 mph N/A   Overcast
3:35 AM 1.4 °F -21.0 °F -0.4 °F 92% 30.13 in 10.0 mi NNE 21.9 mph 26.5 mph N/A   Overcast
3:55 AM 1.4 °F -21.4 °F -2.2 °F 85% 30.12 in 10.0 mi NNE 23.0 mph 27.6 mph N/A   Overcast
4:15 AM 1.4 °F -21.0 °F -2.2 °F 85% 30.11 in 10.0 mi NNE 21.9 mph 26.5 mph N/A   Overcast
4:35 AM 1.4 °F -20.5 °F -2.2 °F 85% 30.11 in 10.0 mi NNE 20.7 mph 28.8 mph N/A   Overcast
4:55 AM -0.4 °F -23.3 °F -2.2 °F 92% 30.11 in 10.0 mi NE 21.9 mph 26.5 mph N/A   Overcast
5:15 AM -0.4 °F -22.8 °F -2.2 °F 92% 30.11 in 10.0 mi NE 20.7 mph 28.8 mph N/A   Overcast
5:35 AM -0.4 °F -23.3 °F -2.2 °F 92% 30.12 in 10.0 mi NNE 21.9 mph 26.5 mph N/A   Overcast
5:55 AM -0.4 °F -22.8 °F -4.0 °F 85% 30.13 in 10.0 mi NE 20.7 mph 27.6 mph N/A   Overcast
6:15 AM -0.4 °F -23.3 °F -4.0 °F 85% 30.12 in 10.0 mi NE 21.9 mph - N/A Snow Light Snow
6:35 AM -0.4 °F -20.5 °F -4.0 °F 85% 30.13 in 10.0 mi NE 16.1 mph - N/A   Overcast
6:55 AM -0.4 °F -22.3 °F -4.0 °F 85% 30.14 in 10.0 mi NE 19.6 mph 24.2 mph N/A Snow Light Snow
7:15 AM -0.4 °F -21.7 °F -4.0 °F 85% 30.15 in 10.0 mi NE 18.4 mph 24.2 mph N/A   Overcast
7:35 AM -0.4 °F -22.8 °F -4.0 °F 85% 30.15 in 10.0 mi NNE 20.7 mph - N/A Snow Light Snow
7:55 AM -0.4 °F -21.7 °F -4.0 °F 85% 30.16 in 10.0 mi NNE 18.4 mph - N/A   Overcast
8:15 AM -0.4 °F -20.5 °F -4.0 °F 85% 30.17 in 10.0 mi NNE 16.1 mph 25.3 mph N/A Snow Light Snow
8:35 AM -0.4 °F -21.2 °F -4.0 °F 85% 30.17 in 10.0 mi NNE 17.3 mph - N/A Snow Light Snow
8:55 AM -0.4 °F -20.5 °F -5.8 °F 78% 30.18 in 7.0 mi NNE 16.1 mph 25.3 mph N/A Rain Light Freezing Rain
9:15 AM -0.4 °F -21.7 °F -5.8 °F 78% 30.19 in 5.0 mi NNE 18.4 mph - N/A Snow Light Snow
9:35 AM -0.4 °F -21.2 °F -5.8 °F 78% 30.19 in 5.0 mi NNE 17.3 mph - 0.01 in Snow Light Snow
9:55 AM -0.4 °F -22.3 °F -5.8 °F 78% 30.20 in 5.0 mi NNE 19.6 mph 23.0 mph 0.02 in Snow Light Snow
10:15 AM -0.4 °F -22.8 °F -5.8 °F 78% 30.21 in 5.0 mi NNE 20.7 mph - N/A Snow Light Snow
10:35 AM -0.4 °F -21.2 °F -4.0 °F 85% 30.21 in 5.0 mi NE 17.3 mph - 0.01 in Snow Light Snow
10:55 AM -0.4 °F -21.7 °F -4.0 °F 85% 30.21 in 4.0 mi NE 18.4 mph - 0.03 in Snow Light Snow
11:15 AM -0.4 °F -21.7 °F -5.8 °F 78% 30.21 in 7.0 mi NNE 18.4 mph 21.9 mph N/A Snow Light Snow
11:35 AM -0.4 °F -21.7 °F -4.0 °F 85% 30.20 in 9.0 mi NNE 18.4 mph - N/A Rain Light Freezing Rain
11:55 AM -0.4 °F -20.5 °F -4.0 °F 85% 30.21 in 10.0 mi NNE 16.1 mph - N/A Rain Light Freezing Rain
12:15 PM -0.4 °F -20.5 °F -5.8 °F 78% 30.21 in 9.0 mi NNE 16.1 mph - N/A Rain Light Freezing Rain
12:35 PM -0.4 °F -21.2 °F -5.8 °F 78% 30.21 in 10.0 mi NNE 17.3 mph - N/A Rain Light Freezing Rain
12:55 PM -0.4 °F -20.5 °F -5.8 °F 78% 30.21 in 8.0 mi NNE 16.1 mph - N/A Snow Light Snow
1:15 PM -0.4 °F -22.3 °F -5.8 °F 78% 30.20 in 5.0 mi NNE 19.6 mph - N/A Snow Light Snow
1:35 PM -0.4 °F -21.7 °F -5.8 °F 78% 30.20 in 8.0 mi NNE 18.4 mph - 0.01 in Rain Light Freezing Rain
1:55 PM -0.4 °F -22.8 °F -5.8 °F 78% 30.20 in 10.0 mi NNE 20.7 mph - 0.01 in Rain Light Freezing Rain
2:15 PM -0.4 °F -22.3 °F -5.8 °F 78% 30.20 in 10.0 mi NNE 19.6 mph 23.0 mph N/A Rain Light Freezing Rain
2:35 PM -0.4 °F -20.5 °F -5.8 °F 78% 30.21 in 10.0 mi NNE 16.1 mph - N/A Rain Light Freezing Rain
2:55 PM -0.4 °F -22.3 °F -5.8 °F 78% 30.21 in 10.0 mi NNE 19.6 mph 24.2 mph N/A Rain Light Freezing Rain
3:15 PM -0.4 °F -21.2 °F -5.8 °F 78% 30.22 in 7.0 mi NNE 17.3 mph - N/A Rain Light Freezing Rain
3:35 PM -0.4 °F -22.3 °F -5.8 °F 78% 30.22 in 3.0 mi NE 19.6 mph - 0.01 in Snow Light Snow
3:55 PM -0.4 °F -21.7 °F -5.8 °F 78% 30.22 in 3.0 mi NNE 18.4 mph - 0.02 in Snow Light Snow
4:15 PM -0.4 °F -21.7 °F -5.8 °F 78% 30.22 in 4.0 mi NE 18.4 mph - N/A Snow Light Snow
4:35 PM -0.4 °F -21.7 °F -5.8 °F 78% 30.23 in 4.0 mi NNE 18.4 mph - N/A Snow Light Snow
4:55 PM -0.4 °F -21.7 °F -5.8 °F 78% 30.25 in 6.0 mi NNE 18.4 mph - 0.01 in Snow Light Snow
5:15 PM -0.4 °F -21.2 °F -5.8 °F 78% 30.26 in 10.0 mi NNE 17.3 mph - N/A   Overcast
5:35 PM -2.2 °F -22.9 °F -7.6 °F 78% 30.26 in 10.0 mi NNE 16.1 mph - N/A   Overcast
5:55 PM -2.2 °F -24.1 °F -7.6 °F 78% 30.26 in 10.0 mi NNE 18.4 mph - N/A   Overcast
6:15 PM -2.2 °F -24.7 °F -7.6 °F 78% 30.27 in 10.0 mi NNE 19.6 mph - N/A Rain Light Freezing Rain
6:35 PM -2.2 °F -21.5 °F -7.6 °F 78% 30.27 in 10.0 mi NNE 13.8 mph - N/A Snow Light Snow
6:55 PM -2.2 °F -22.9 °F -7.6 °F 78% 30.27 in 10.0 mi NNE 16.1 mph - N/A Rain Light Freezing Rain
7:15 PM -2.2 °F -22.9 °F -7.6 °F 78% 30.27 in 10.0 mi NNE 16.1 mph - N/A Rain Light Freezing Rain
7:35 PM -2.2 °F -20.7 °F -7.6 °F 78% 30.28 in 8.0 mi NNE 12.7 mph - N/A Snow Light Snow
7:55 PM -2.2 °F -22.9 °F -7.6 °F 78% 30.28 in 9.0 mi NNE 16.1 mph 20.7 mph 0.01 in Rain Light Freezing Rain
8:15 PM -2.2 °F -22.9 °F -7.6 °F 78% 30.29 in 10.0 mi NNE 16.1 mph - N/A Rain Light Freezing Rain
8:35 PM -2.2 °F -20.7 °F -7.6 °F 78% 30.30 in 10.0 mi NNE 12.7 mph - N/A Rain Light Freezing Rain
8:55 PM -2.2 °F -19.9 °F -7.6 °F 78% 30.29 in 10.0 mi NNE 11.5 mph - N/A Rain Light Freezing Rain
9:15 PM -2.2 °F -20.7 °F -7.6 °F 78% 30.30 in 10.0 mi NNE 12.7 mph - N/A Rain Light Freezing Rain
9:35 PM -2.2 °F -21.5 °F -7.6 °F 78% 30.30 in 5.0 mi NNE 13.8 mph - 0.01 in Snow Light Snow
9:55 PM -2.2 °F -21.5 °F -7.6 °F 78% 30.29 in 5.0 mi NNE 13.8 mph - 0.02 in Snow Light Snow
10:15 PM -2.2 °F -19.9 °F -7.6 °F 78% 30.30 in 5.0 mi NNE 11.5 mph - 0.01 in Snow Light Snow
10:35 PM -2.2 °F -18.9 °F -7.6 °F 78% 30.30 in 5.0 mi NNE 10.4 mph - 0.04 in Snow Light Snow
10:55 PM -2.2 °F -18.0 °F -7.6 °F 78% 30.30 in 7.0 mi North 9.2 mph - 0.05 in Snow Light Snow
11:15 PM -2.2 °F -15.6 °F -7.6 °F 78% 30.30 in 6.0 mi NNE 6.9 mph - N/A Snow Light Snow
11:35 PM -2.2 °F -16.8 °F -7.6 °F 78% 30.30 in 4.0 mi NNE 8.1 mph - 0.03 in Snow Light Snow
11:55 PM -2.2 °F -15.6 °F -7.6 °F 78% 30.30 in 3.0 mi North 6.9 mph - 0.10 in Snow Light Snow